Lapse_Rate
1.2 1.5 1.7 1.6 2.1 1.2 1.3 0.2 -0.5 0.9 3.7 2.3 0.8 0.6 0.6 1.4 2.5 2.0 2.7 3.5 3.8 4.6 3.7 2.6 2.4 2.3 2.6 2.9 3.1 3.2 3.2 3.2 3.4 3.5 3.9 4.5 5.1 5.7
0.4 0.6 0.1 0.2 1.8 3.4 3.0 2.2 -0.4 0.6 1.4 -1.1 -0.9 -1.3 0.1 1.3 2.3 2.1 2.4 3.1 2.9 3.2 3.1 2.5 2.5 2.6 2.7 2.9 3.0 3.2 3.3 3.3 3.3 3.7 4.1 4.8 5.7 5.9
1.5 1.4 0.8 0.1 -0.3 2.0 2.9 2.2 1.7 0.9 1.0 -2.1 -2.1 -0.9 -0.2 1.1 1.6 1.3 2.3 1.7 2.3 3.4 2.7 2.6 2.8 2.8 2.9 2.9 3.1 3.2 3.3 3.5 3.5 3.7 3.9 4.3 4.9 6.7
2.4 2.3 2.0 2.2 1.1 2.7 3.8 3.4 2.5 1.3 0.8 -0.3 -1.1 -0.4 -0.1 2.0 0.5 0.4 1.4 1.8 1.9 3.3 3.8 3.5 3.4 3.3 3.4 3.2 3.5 3.4 3.6 3.5 3.3 3.3 3.2 3.5 4.4 4.9
2.8 2.7 1.9 1.6 1.3 1.1 2.5 3.7 3.1 2.5 1.8 0.5 -1.4 0.2 -0.9 1.0 0.5 1.5 1.4 2.3 2.4 2.8 4.3 4.3 4.0 3.9 3.7 3.6 3.6 3.7 3.7 3.5 3.3 3.5 3.5 3.5 3.8 4.4
2.5 2.5 2.6 2.5 2.0 2.0 2.7 2.7 3.8 2.2 1.9 1.2 0.5 1.1 1.8 0.6 1.8 1.5 1.8 1.6 2.1 3.3 3.7 4.3 4.5 4.7 4.6 4.2 4.1 4.1 3.9 3.9 3.9 3.9 3.8 3.9 4.1 4.3
4.0 4.7 4.1 5.8 6.4 5.6 4.5 3.0 2.8 2.7 1.7 1.6 1.5 1.6 2.9 2.7 2.9 2.4 3.1 1.9 1.4 2.5 2.3 3.0 3.8 3.9 4.4 4.9 4.4 4.3 4.0 4.4 4.5 4.3 4.4 4.6 4.7 4.9
4.8 4.7 5.1 4.8 5.3 7.2 6.7 5.5 3.1 1.5 1.8 2.1 1.8 1.4 1.2 2.2 2.4 2.8 2.3 2.6 3.5 2.5 2.0 2.4 3.1 2.4 3.3 3.6 4.2 4.5 4.9 5.4 5.4 5.4 5.3 5.3 5.4 5.6
4.4 4.6 4.9 5.2 4.6 4.3 4.6 5.4 5.4 5.5 2.9 0.5 0.4 0.7 0.6 1.7 1.9 2.6 3.2 2.8 2.7 1.7 2.8 3.4 3.4 3.6 3.7 4.0 4.9 5.5 6.0 6.2 6.2 6.5 6.6 6.8 7.1 7.5
5.2 4.8 4.6 4.4 4.2 4.3 3.7 3.3 3.1 2.8 3.4 3.7 2.6 1.9 2.4 2.6 3.5 3.7 3.5 3.8 4.0 4.5 4.7 4.5 3.2 2.9 3.8 4.5 5.5 6.4 6.5 6.8 6.9 7.1 7.1 7.3 7.6 8.2
6.3 5.6 5.7 5.5 5.9 6.4 5.4 4.7 4.4 4.2 3.8 4.1 4.2 4.1 3.9 4.4 4.7 4.0 3.1 2.8 2.9 3.6 3.8 4.8 4.2 4.5 4.1 4.3 5.0 5.9 6.6 7.3 7.5 7.6 7.7 8.3 9.2 9.4
6.9 6.9 7.1 7.3 7.2 7.3 6.9 5.8 5.4 5.1 4.8 4.7 4.3 4.7 5.1 5.0 5.7 4.9 4.6 4.8 4.7 4.6 4.8 6.1 6.4 5.7 5.6 4.3 4.5 4.3 5.1 6.0 6.8 7.5 8.5 9.3 9.4 9.3
8.1 8.0 8.1 8.4 8.1 7.9 7.7 6.5 6.0 6.6 6.2 5.9 5.5 5.3 5.2 5.0 5.2 6.1 5.7 5.6 5.8 6.3 5.8 6.1 5.8 5.8 5.4 4.9 5.3 5.8 5.7 5.8 6.3 6.8 7.7 8.4 9.2 9.0
8.4 8.5 8.1 8.7 9.1 8.6 7.8 7.4 7.9 7.7 6.0 6.0 6.1 6.0 5.9 5.7 5.4 5.4 5.5 5.5 6.0 6.5 7.0 7.3 5.1 6.5 6.4 6.6 6.9 6.4 6.2 6.5 6.4 6.4 7.1 7.7 8.8 9.4
8.7 8.6 9.1 7.8 8.4 9.2 9.4 9.1 8.2 7.1 7.0 6.9 6.4 6.4 6.6 6.8 6.9 6.8 7.1 7.0 7.2 6.9 7.3 7.1 7.2 7.3 7.0 7.2 7.4 7.5 7.1 6.2 6.7 6.7 6.8 6.9 7.3 7.7
7.2 6.0 7.0 8.3 9.1 8.1 7.0 6.2 6.7 7.2 6.9 6.8 7.2 7.2 7.0 6.5 6.5 6.7 6.6 6.8 6.6 6.6 7.1 7.4 7.2 7.5 7.2 7.2 7.1 7.2 6.4 6.4 6.2 6.6 6.7 7.1 7.1 7.0
7.4 3.6 4.5 5.2 5.9 6.4 6.6 7.2 7.1 6.8 6.4 6.8 7.1 7.1 6.9 6.8 6.6 6.4 6.6 6.8 6.7 6.8 6.9 7.0 7.5 7.6 7.4 7.6 7.1 7.0 6.7 6.2 6.4 6.7 6.6 6.8 7.0 7.0
8.2 6.7 5.2 5.2 5.2 5.5 5.9 6.3 7.0 7.6 7.9 7.5 7.1 6.9 7.1 7.4 7.5 7.2 7.4 7.1 6.8 6.8 6.7 6.9 7.2 7.5 7.2 7.4 8.2 7.5 7.3 7.2 6.9 6.8 6.8 6.7 6.6 7.0
4.7 4.5 5.8 6.2 6.8 6.8 5.8 5.8 5.9 6.6 7.0 6.7 7.2 7.0 7.3 7.5 8.2 8.3 8.0 8.1 7.6 7.6 7.2 7.0 7.4 7.8 7.0 7.3 6.8 8.8 8.2 7.9 7.3 6.7 6.8 6.7 6.9 7.1
1.6 0.4 1.6 3.0 4.5 3.8 5.1 4.5 4.3 4.5 5.8 6.6 6.5 6.7 6.5 7.0 5.8 5.9 7.0 5.7 6.3 5.6 5.2 5.0 5.9 6.8 6.4 6.9 4.4 6.4 8.9 7.1 6.8 6.9 6.8 6.4 7.2 7.9
-1.3 -1.1 -1.2 -0.1 2.2 5.5 6.0 5.2 4.9 4.7 4.9 3.4 4.4 6.0 6.1 5.0 3.8 5.2 5.5 8.8 7.3 3.2 2.1 3.8 5.6 8.1 5.4 4.8 4.2 3.1 4.0 7.2 8.4 7.5 5.7 5.7 5.0 4.0
-0.5 -0.3 1.3 0.9 1.6 2.4 4.6 4.1 3.1 3.8 3.5 4.9 6.6 5.3 4.9 4.6 2.7 3.4 3.8 2.3 3.2 2.4 1.8 1.4 1.9 2.0 1.0 4.7 5.9 1.6 1.1 3.1 6.6 7.5 8.0 8.1 5.6 4.8
0.8 -0.3 0.6 1.3 1.7 1.6 -0.6 1.3 1.5 1.7 2.3 2.6 2.7 3.1 3.4 2.6 3.4 1.9 1.0 1.8 1.6 0.2 -0.6 -0.5 0.4 2.6 2.4 3.3 6.2 2.7 -0.4 -0.4 2.2 4.9 4.7 6.2 7.6 7.9
Wind_Speed
1 3 2 3 2 1 6 8 6 6 9 6 4 11 14 15 16 19 18 17 16 14 14 14 13 12 10 8 6 5 5 4 4 3 2 3 2 1
4 6 4 3 3 1 4 8 3 1 6 3 3 5 17 16 20 21 19 17 17 17 16 14 13 12 11 9 7 6 5 5 4 4 3 3 4 4
4 3 5 4 4 3 1 3 3 2 5 1 2 9 7 12 16 20 18 16 15 16 15 14 13 12 11 10 8 7 7 7 5 4 4 5 5 6
3 4 4 2 4 4 2 2 2 2 3 7 3 4 4 12 14 13 12 10 14 13 14 15 15 13 12 10 9 8 9 8 6 6 5 5 7 7
4 2 3 3 3 2 1 1 1 0 2 6 3 2 3 8 4 5 7 8 11 11 14 15 15 14 12 10 10 10 10 10 9 8 8 8 8 9
4 3 3 1 3 4 4 3 1 2 5 7 4 6 6 3 4 4 2 2 3 9 12 12 13 13 13 12 11 12 10 11 11 11 10 10 10 11
6 3 3 4 5 3 1 1 5 2 4 7 6 6 6 7 11 5 5 3 4 7 4 7 12 11 11 11 11 11 10 12 13 11 11 12 12 12
4 4 6 9 6 5 5 4 3 1 4 5 5 9 10 9 6 6 4 3 3 12 3 3 10 6 13 13 13 11 12 13 13 12 11 11 12 13
3 3 3 3 7 6 8 5 3 4 5 2 2 4 5 8 8 7 6 3 3 3 5 3 4 4 12 14 14 15 14 15 14 15 15 16 18 18
3 3 3 3 2 3 3 4 4 4 5 4 2 3 4 8 7 4 4 3 2 3 4 3 2 3 8 15 14 16 17 19 19 19 19 21 21 19
5 6 4 3 7 10 4 5 4 4 6 4 2 4 3 5 7 6 3 2 2 3 5 2 2 2 2 6 16 19 22 22 22 22 23 21 21 20
4 5 10 8 11 13 7 5 6 5 4 3 4 4 9 10 14 10 4 5 4 2 4 6 5 3 2 3 13 15 16 20 23 23 22 23 21 17
5 4 4 10 12 16 14 6 7 7 8 6 5 4 4 3 5 10 15 8 8 6 5 5 3 4 3 2 1 6 11 13 13 14 17 20 21 18
4 4 4 13 14 15 13 15 15 13 7 7 6 6 6 6 6 11 12 10 11 8 9 11 2 5 4 4 4 3 9 16 15 11 14 14 17 18
6 8 12 11 13 15 18 20 16 5 2 4 6 5 7 7 11 8 10 11 12 13 14 15 7 6 6 6 5 5 5 4 12 10 11 12 13 14
10 6 10 14 15 10 7 6 5 2 1 2 2 3 4 4 5 4 5 5 5 5 14 17 16 13 8 8 8 8 5 5 4 8 12 13 13 16
9 3 2 3 4 5 4 4 4 4 3 2 1 1 1 1 1 1 1 2 4 2 4 5 12 14 13 10 8 7 6 6 6 7 7 8 11 15
7 5 6 4 4 4 4 5 5 9 6 5 5 4 4 3 2 3 4 4 5 5 4 4 5 6 4 8 15 6 6 7 6 8 8 9 9 12
4 4 5 3 4 6 4 3 4 4 4 3 5 4 5 6 9 6 6 6 5 4 3 2 3 4 5 7 3 14 7 5 6 7 8 8 9 5
1 0 2 2 4 3 4 3 3 2 3 4 4 4 5 5 3 2 3 3 3 2 1 1 2 4 4 5 3 3 16 3 3 5 5 4 10 16
2 2 3 3 2 2 4 3 2 2 3 3 3 4 5 3 2 2 3 10 9 2 3 3 4 12 4 1 1 3 3 12 10 3 2 2 2 2
3 4 4 4 4 4 3 3 3 2 2 1 2 1 1 2 3 3 2 2 2 2 3 2 3 1 1 3 6 3 2 3 7 11 16 16 4 5
4 4 4 4 4 4 3 3 3 3 2 2 2 2 1 2 2 2 2 3 2 2 2 1 1 1 1 2 7 3 3 3 2 6 8 20 23 28
Wind_Direction
56 126 38 22 19 119 142 176 147 150 192 200 168 189 169 161 161 155 157 165 162 167 163 162 162 158 160 161 162 161 158 165 169 164 188 192 193 166
65 66 68 27 2 305 182 171 125 217 158 169 197 166 168 164 167 164 162 168 165 172 174 173 172 168 170 171 178 188 195 200 196 198 222 238 235 232
112 115 93 65 55 352 317 102 148 124 145 208 116 151 152 159 161 169 173 169 171 185 179 180 180 180 181 181 197 201 213 215 214 221 240 251 250 250
105 111 112 86 76 42 25 7 131 109 129 152 121 153 144 170 152 152 165 176 188 190 194 189 189 188 193 192 211 214 228 234 238 241 239 256 267 260
34 30 119 126 115 104 66 308 42 81 135 139 141 148 112 153 129 144 161 172 197 196 205 202 197 198 201 204 213 226 236 242 244 251 257 262 261 262
81 66 38 320 160 154 157 176 166 152 120 131 119 150 155 131 135 144 148 189 189 204 209 214 209 209 216 214 214 224 233 248 253 255 255 258 260 263
35 41 100 102 105 105 96 180 156 156 146 138 144 152 164 168 175 167 182 168 202 204 213 216 213 212 228 223 226 233 238 249 250 250 253 254 257 261
18 18 14 34 47 79 96 98 84 110 172 152 160 173 178 180 159 173 138 143 209 208 183 231 194 205 221 225 241 251 242 246 248 250 251 252 251 254
344 348 338 11 22 20 25 44 63 133 132 83 135 173 162 183 167 163 170 150 184 166 162 193 180 225 233 238 240 236 243 247 245 254 255 262 264 262
344 337 324 344 308 283 349 359 7 19 33 50 113 126 85 133 151 156 143 139 88 145 154 195 151 210 226 238 238 246 250 249 252 251 263 268 262 259
339 351 318 304 289 279 212 248 288 302 313 323 264 231 201 190 186 123 145 133 189 200 190 149 187 217 207 232 244 250 254 253 257 260 265 259 260 255
309 303 301 292 261 264 269 208 228 234 218 238 282 297 245 225 214 197 174 200 206 221 189 204 214 165 266 230 233 240 250 260 263 262 260 258 256 262
318 319 323 300 293 293 285 214 218 220 230 221 222 236 253 248 257 234 211 207 213 221 196 176 186 183 205 237 234 231 234 250 256 257 261 261 258 252
278 272 277 291 285 286 291 294 294 262 207 213 208 216 220 226 238 247 245 219 221 220 203 195 186 202 213 233 237 224 242 249 248 242 247 249 257 261
293 296 298 324 327 277 284 281 287 308 216 212 225 212 212 214 217 215 227 222 219 224 226 226 227 228 227 239 241 225 220 226 232 231 239 244 249 253
294 298 278 280 295 300 314 340 342 296 275 306 260 210 205 197 201 201 210 215 217 225 233 233 231 228 237 237 244 244 221 223 217 232 238 244 239 235
267 216 247 256 258 262 258 261 273 302 314 353 4 169 225 270 175 158 227 197 229 243 237 236 244 242 243 244 245 240 239 234 229 234 235 247 245 244
287 252 238 257 263 270 260 248 238 254 240 234 225 224 233 225 206 211 213 223 241 235 227 248 252 258 256 247 240 248 232 236 233 231 233 247 251 247
40 17 353 292 252 258 259 248 251 250 251 241 242 227 229 224 242 227 220 219 218 214 202 199 224 237 244 255 253 263 257 246 251 245 243 243 253 235
49 258 285 304 309 253 252 246 247 248 229 229 226 228 224 218 196 178 189 187 195 200 209 220 213 227 231 250 226 250 270 243 235 261 264 252 257 271
265 263 242 260 259 294 320 284 225 215 230 229 214 222 219 179 194 192 212 247 234 175 219 236 237 261 208 85 354 287 275 272 274 232 211 209 226 242
248 247 264 253 258 261 252 259 273 276 328 270 258 235 237 181 182 193 190 200 247 194 224 270 320 8 128 202 253 227 267 288 271 281 282 275 233 262
256 237 243 245 250 249 224 241 236 252 251 238 247 247 175 191 190 163 169 188 188 200 194 258 279 133 242 198 257 214 235 254 250 288 279 274 275 275